Regional Weather Roundup
Issued by NWS Mobile, AL

Home | Current Version | Previous Version | Text Only | Print | Product List | Glossary On
Versions: 1 2 3 4 5 6 7 8 9 10 11 12 13 14 15 16 17 18 19 20 21 22 23 24 25 26 27
000
ASUS44 KMOB 190311
RWRMOB
REGIONAL WEATHER ROUNDUP
NATIONAL WEATHER SERVICE MOBILE AL
900 PM CST SUN FEB 18 2018

NOTE: "FAIR" INDICATES FEW OR NO CLOUDS BELOW 12,000 FEET WITH NO
      SIGNIFICANT WEATHER AND/OR OBSTRUCTIONS TO VISIBILITY.

  * THESE STATIONS ARE PART OF THE UNIVERSITY OF SOUTH ALABAMA
    MESONET AND ARE NOT UNDER NWS OR FAA QUALITY CONTROL.

ALZ061>064-190400-
COASTAL ALABAMA

CITY           SKY/WX    TMP DP  RH WIND       PRES   REMARKS
MOBILE REG APT FAIR      66  60  81 CALM      30.20S
BROOKLEY FIELD MOCLDY    63  63 100 CALM      30.21S
USA CAMPUS*    NOT AVBL
DOG RIVER*     NOT AVBL


CITY           SKY/WX    TMP DP  RH WIND       PRES   REMARKS
GULF SHORES    CLOUDY    65  65 100 SE6       30.20S FOG

$$

ALZ051>060-190400-
INTERIOR SOUTHWEST AND SOUTH CENTRAL ALABAMA

CITY           SKY/WX    TMP DP  RH WIND       PRES   REMARKS
GREENVILLE     FAIR      68  60  75 CALM      30.21R
EVERGREEN      FAIR      67  57  70 S3        30.21R
ATMORE*          N/A     64  63  94 SE2       30.98
ANDALUSIA/OPP  FAIR      65  59  81 E3        30.21R
ANDALUSIA*       N/A     66  59  77 CALM      30.22R
FLORALA APT    NOT AVBL
FLORALA*         N/A     63  59  88 CALM      30.97R

$$

FLZ001>006-190400-
WESTERN FLORIDA PANHANDLE

CITY           SKY/WX    TMP DP  RH WIND       PRES   REMARKS
PENSACOLA      CLOUDY    69  67  93 SE6       30.20R
NAS PENSACOLA  FAIR      65  63  93 MISG      30.20R FOG
MILTON         FAIR      62  62 100 CALM      30.21R FOG
WHTNG S FIELD  FAIR      66  65  96 S5        30.21R


CITY           SKY/WX    TMP DP  RH WIND       PRES   REMARKS
JAY*           NOT AVBL
DUKE FIELD     FAIR      64  62  95 CALM      30.22R
CRESTVIEW      FAIR      62  59  90 CALM      30.23R
VALPARAISO     CLEAR     68  67  94 SE6       30.21R
DESTIN         FAIR      72  66  81 SE5       30.21R

$$

MSZ076-079-190400-
INTERIOR SOUTHEAST MISSISSIPPI

CITY           SKY/WX    TMP DP  RH WIND       PRES   REMARKS
LEAKESVILLE*   NOT AVBL
AGRICOLA*      NOT AVBL

$$

MARINE OBSERVATIONS

STATION/POSITION TIME  TEMP    WIND        PRES    WAVE
                       AIR SEA DIR/SP/G            HT/PER
                 (UTC) (F)     (DEG/KT/KT) (MB)    (FT/S)
PETIT BOIS ISLND 0248   64      90/  6/  8 1023.0R
KATRINA CUT      0230           80/  2     1023.0R
CEDAR POINT      0230   65      70/  2     1022.7R
E DAUPHIN ISLAND 0300   67      90/  2/  2 1022.5R
MIDDLE BAY LIGHT 0230   63        CALM     1022.7R
USCG MOBILE BAY  0248   63 63     CALM     1022.6R
STATE DOCKS      0248   64 59              1022.5R
MEAHER PARK      0230   62     110/  2     1022.4S
WEEKS BAY        0145   67                 1022.0S
FORT MORGAN      0248   68     130/  6/  6   N/A
12 S ORANGE BCH  NOT AVBL
PENSACOLA BAY    0248   70 72   CALM  /  3 1023.0R
64 S DAUPHIN ISL 0250   73 73  120/ 10/ 14 1022.5R   2/ 6
67 S FORT MORGAN 0230   73                 1022.4R

$$

SELECTED LOCATIONS ACROSS THE REGION

CITY           SKY/WX    TMP DP  RH WIND       PRES   REMARKS
NEW ORLEANS    FAIR      70  67  90 SE9       30.15S
GULFPORT       CLOUDY    66  66 100 SE6       30.17S FOG
PASCAGOULA AP  FOG       63  62  97 CALM      30.19S VSB 1/4
PASCAGOULA*      N/A     46  46 100 CALM        N/A
HATTIESBURG    FAIR      65  62  90 SE6       30.17S
LAUREL         FAIR      64  61  90 SE7       30.17S
MERIDIAN       FAIR      55  54  96 CALM      30.17S
JACKSON        FAIR      56  55  97 CALM      30.11F
MONTGOMERY     CLOUDY    64  58  80 NE3       30.21S
TROY           MOCLDY    65  63  93 CALM      30.23R
ASHFORD*         N/A     66  59  77 CALM      30.22R
DOTHAN         CLOUDY    71  60  68 S5        30.26R
PANAMA CITY    FAIR      67  64  90 SE3       30.22R

$$





USA.gov is the U.S. government's official web portal to all federal, state and local government web resources and services.